Home   Weather   Visalia   Past weeks

Flag for USA Past Weather in Visalia, California, USA — Yesterday and Last 2 Weeks

Now
76 °F

Clear.


Feels Like: 78 °F
Forecast: 64 / 94 °F
Wind: 6 mph from Northwest

Location: Visalia Municipal

Current Time: Aug 30, 2016 at 11:23:34 PM

Latest Report: Aug 30, 2016 at 10:56 PM


Visibility: 10 mi

Pressure: 29.87 "Hg

Humidity: 43%

Dew Point: 52 °F

Location of VisaliaLocation

Past Weather in Visalia — Graph

°F

Visalia Temperature Yesterday

Maximum temperature yesterday: 94 °F (at 4:56 PM)
Minimum temperature yesterday: 62 °F (at 6:56 AM)
Average temperature yesterday: 78 °F

High & Low Weather Summary for the Past Weeks

 TemperatureHumidityPressure
High101 °F (Aug 17, 3:56 PM)87% (Aug 19, 4:56 AM)30.07 "Hg (Aug 19, 4:56 AM)
Low59 °F (Aug 25, 5:56 AM)14% (Aug 17, 4:56 PM)29.72 "Hg (Aug 17, 6:56 PM)
Average79 °F50%29.89 "Hg
* Reported Aug 15 9:56 PM — Aug 30 9:56 PM, Visalia, Weather by CustomWeather, © 2016

Note: Actual official high and low records may vary slightly from our data, if they occured in-between our weather recording intervals... More about our weather records

Advertising

Visalia Weather History for the Previous 24 Hours

Scroll right to see more
 ConditionsComfort  
Time TempWeatherWind HumidityBarometerVisibility
9:56 PM
Tue, Aug 30
78 °FClear.5 mph39%29.87 "Hg10 mi
8:56 PM82 °FClear.9 mph32%29.86 "Hg10 mi
7:56 PM83 °FSunny.7 mph34%29.84 "Hg10 mi
6:56 PM88 °FSunny.8 mph34%29.82 "Hg10 mi
5:56 PM91 °FSunny.10 mph32%29.83 "Hg10 mi
4:56 PM95 °FSunny.7 mph27%29.83 "Hg10 mi
3:56 PM93 °FSunny.7 mph32%29.85 "Hg10 mi
2:56 PM91 °FSunny.7 mph36%29.87 "Hg10 mi
1:56 PM89 °FSunny.6 mph36%29.91 "Hg10 mi
12:56 PM85 °FSunny.No wind39%29.93 "Hg10 mi
11:56 AM82 °FSunny.No wind43%29.96 "Hg10 mi
10:56 AM78 °FSunny.3 mph48%29.98 "Hg10 mi
9:56 AM74 °FSunny.3 mph53%29.99 "Hg10 mi
8:56 AM69 °FSunny.No wind66%29.99 "Hg10 mi
7:56 AM64 °FSunny.No wind75%29.98 "Hg10 mi
6:56 AM62 °FClear.5 mph80%29.97 "Hg10 mi
5:56 AM63 °FClear.5 mph78%29.95 "Hg10 mi
4:56 AM64 °FClear.7 mph75%29.95 "Hg10 mi
3:56 AM64 °FClear.6 mph78%29.95 "Hg10 mi
2:56 AM67 °FClear.6 mph71%29.95 "Hg10 mi
1:56 AM69 °FClear.6 mph66%29.94 "Hg10 mi
12:56 AM73 °FClear.8 mph57%29.95 "Hg10 mi
11:56 PM
Mon, Aug 29
75 °FClear.10 mph54%29.96 "Hg10 mi
Weather by CustomWeather, © 2016

See weather overviewHow to use our weather pages